Lapse_Rate
6.7 6.6 6.4 6.2 6.1 5.9 5.7 5.4 5.0 5.1 4.5 4.3 4.2 4.1 4.0 3.9 4.1 4.0 4.2 4.3 4.3 4.3 4.7 5.2 5.4 5.3 5.2 5.3 5.5 5.5 5.6 5.5 5.4 5.2 5.3 5.3 5.3 5.2 5.2 5.2 5.2 5.3 5.3
6.3 6.3 6.3 6.3 6.2 6.0 5.8 5.5 5.1 4.8 4.5 4.4 4.2 4.2 4.3 4.4 4.4 4.4 4.5 4.3 4.4 4.7 4.9 5.2 5.4 5.4 5.5 5.6 5.6 5.5 5.5 5.6 5.6 5.4 5.4 5.6 5.6 5.7 5.5 5.6 5.6 5.5 5.6
6.4 6.5 6.5 6.5 6.4 6.4 6.3 6.1 5.6 5.2 4.9 4.7 4.5 4.4 4.4 4.4 4.5 4.5 4.6 4.8 4.7 4.9 5.0 5.2 5.4 5.5 5.5 5.7 5.7 5.6 5.6 5.6 5.7 5.8 5.6 5.7 5.8 5.8 5.9 5.9 6.1 6.0 6.2
6.3 6.4 6.4 6.4 6.4 6.5 6.5 6.6 6.3 6.0 5.3 5.0 4.9 4.7 4.9 4.9 4.9 4.7 4.8 5.1 5.2 5.3 5.1 5.1 5.3 5.5 5.6 5.7 5.8 5.8 5.8 5.7 5.8 5.6 5.9 5.9 5.8 5.5 5.5 5.9 6.3 6.7 6.4
6.0 6.1 6.2 6.2 6.3 6.3 6.4 6.5 6.4 6.1 5.5 5.1 5.1 5.0 5.1 5.1 5.2 5.2 5.2 5.3 5.2 5.3 5.3 5.4 5.5 5.6 5.8 5.9 5.8 5.7 5.6 5.7 5.7 5.9 5.7 5.9 6.1 6.2 6.1 6.1 6.3 6.2 6.5
5.7 5.7 5.7 5.7 5.8 6.0 6.1 6.1 6.0 5.8 5.6 5.4 5.4 5.4 5.5 5.5 5.5 5.4 5.3 5.2 5.3 5.4 5.6 5.7 5.6 5.5 5.6 5.8 5.8 5.8 5.9 6.0 6.1 6.2 6.3 6.2 6.4 6.6 6.5 6.4 6.4 6.2 6.6
5.7 5.8 5.8 5.7 5.6 5.5 5.6 5.6 5.6 5.6 5.6 5.6 5.5 5.5 5.5 5.6 5.7 5.7 5.7 5.7 5.8 5.9 6.0 6.0 6.0 5.9 6.1 6.0 6.1 6.0 6.1 6.3 6.2 6.4 6.6 6.5 6.6 6.6 6.5 6.5 6.6 6.2 6.6
6.0 6.1 5.9 5.7 5.7 5.7 5.8 5.9 5.9 5.8 5.7 5.6 5.6 5.6 5.7 5.6 5.7 5.7 5.7 5.9 6.0 6.1 6.1 6.3 6.4 6.3 6.1 6.1 6.1 6.1 6.2 6.4 6.4 6.6 6.8 6.7 6.7 6.8 7.0 6.7 6.4 6.2 6.6
6.1 6.0 6.0 5.9 5.8 5.8 6.0 6.1 6.0 5.9 5.8 5.7 5.7 5.6 5.6 5.7 5.7 5.8 6.0 6.1 6.1 6.1 6.0 6.0 6.2 6.5 6.6 6.5 6.5 6.6 6.7 6.7 6.6 6.8 7.0 7.0 7.0 6.9 7.0 6.9 6.7 6.7 6.2
5.9 6.1 5.8 5.8 6.1 6.2 6.0 5.9 5.7 5.6 5.6 5.6 5.5 5.6 5.6 5.6 5.7 5.8 5.8 5.9 6.1 6.3 6.5 6.6 6.6 6.7 6.7 6.9 6.9 6.8 6.9 6.9 6.9 7.1 7.1 7.3 7.4 7.0 6.9 7.1 7.2 6.9 6.9
5.8 5.6 5.7 5.7 5.6 5.4 5.4 5.5 5.5 5.4 5.4 5.5 5.6 5.7 5.9 6.0 5.9 5.9 5.8 5.7 5.9 6.0 6.2 6.6 6.7 6.8 6.9 7.1 7.1 7.1 7.1 7.0 7.0 7.1 7.3 7.5 7.6 7.3 7.2 7.1 7.0 7.4 7.4
5.4 5.2 5.1 5.1 4.9 4.9 5.1 5.3 5.2 5.3 5.2 5.2 5.2 5.2 5.3 5.3 5.3 5.4 5.5 5.5 5.6 5.6 5.6 5.8 6.0 6.2 6.4 6.8 6.9 6.9 6.9 6.9 6.8 6.9 7.2 7.3 7.5 7.4 7.2 6.9 7.1 7.2 7.5
5.4 5.1 5.1 5.0 5.0 5.1 5.2 5.3 5.1 5.1 5.1 4.9 4.6 4.5 4.4 4.4 4.4 4.6 4.6 4.8 4.9 5.1 5.3 5.2 5.2 5.4 5.5 5.7 6.1 6.5 6.5 6.6 6.9 7.1 7.4 7.1 7.4 7.4 7.3 6.8 6.6 6.9 7.1
4.8 4.9 5.0 4.9 4.7 4.6 4.6 4.5 4.3 4.1 4.0 4.1 4.1 4.2 4.3 4.4 4.4 4.4 4.4 4.5 4.7 4.8 4.9 5.0 5.3 5.4 5.6 5.9 6.3 6.5 6.6 6.6 6.8 7.1 7.4 7.5 7.6 7.5 7.5 7.2 6.5 6.5 6.6
4.9 4.9 4.9 4.9 4.9 4.7 4.5 4.3 4.2 4.3 4.1 4.0 3.9 3.8 3.7 3.8 4.0 4.3 4.6 4.7 4.8 4.7 4.7 4.8 5.0 5.4 5.4 5.4 5.8 6.0 6.1 6.2 6.5 7.0 7.6 7.5 7.5 7.0 7.2 7.1 6.6 6.3 5.9
4.9 4.8 4.7 4.7 4.5 4.3 4.2 4.3 4.4 4.3 4.3 4.5 4.4 4.2 4.0 3.9 3.9 4.1 4.2 4.4 4.6 4.7 4.7 4.7 4.5 4.6 4.9 5.0 5.5 5.8 5.9 6.1 6.6 6.9 7.4 7.7 7.8 7.2 7.4 7.3 6.7 6.2 6.2
4.7 4.5 4.3 4.0 4.0 4.2 4.2 4.2 4.3 4.4 4.5 4.6 4.6 4.5 4.3 4.2 4.3 4.5 4.6 4.6 4.7 4.8 4.9 5.0 5.1 5.1 5.2 5.5 5.8 5.9 5.9 6.0 6.5 7.3 7.4 7.5 7.8 6.8 6.7 7.1 7.0 6.5 6.0
4.3 4.0 4.0 3.9 3.9 4.2 4.6 4.7 4.8 4.7 4.7 4.6 4.6 4.4 4.4 4.5 4.6 4.8 4.9 5.1 5.2 5.3 5.3 5.4 5.6 5.6 5.8 5.7 5.8 6.0 6.0 6.0 6.2 6.8 7.3 7.3 7.4 7.7 7.5 7.1 6.9 6.4 5.8
4.6 4.5 4.7 5.0 5.2 5.2 5.1 4.9 4.9 4.8 4.7 4.7 4.7 4.7 4.8 4.8 4.9 5.1 5.3 5.3 5.4 5.6 5.8 5.8 5.8 5.8 5.9 5.8 5.8 6.0 6.2 6.4 6.4 6.9 6.9 7.2 7.3 7.7 7.4 6.9 5.9 6.1 5.9
5.0 5.3 5.6 5.5 5.4 5.3 5.1 5.0 5.0 4.8 4.7 4.7 4.7 4.7 4.9 5.2 5.4 5.6 5.7 5.8 5.7 5.8 5.8 5.9 5.8 5.8 5.8 6.0 6.2 6.4 6.6 6.8 7.1 7.2 6.6 6.6 6.8 7.4 6.9 6.4 6.0 5.8 6.0
5.6 5.5 5.4 5.3 5.2 5.2 5.2 5.2 5.2 5.0 5.1 5.3 5.6 5.6 5.5 5.2 5.3 5.4 5.5 5.5 5.5 5.6 5.6 5.6 5.7 5.9 5.9 6.1 6.4 6.6 6.7 6.7 6.8 7.0 6.8 6.3 6.0 6.1 6.8 6.6 5.9 5.9 5.6
5.2 5.3 5.2 5.2 5.2 5.3 5.3 5.1 5.1 5.3 5.3 5.3 5.4 5.4 5.4 5.3 5.1 4.9 4.8 4.8 4.8 4.8 5.0 5.2 5.6 6.1 6.4 6.4 6.8 7.1 7.1 6.8 6.8 6.5 6.5 6.1 6.1 6.2 6.3 6.1 5.7 5.8 5.8
5.3 5.3 5.3 5.4 5.4 5.3 5.2 5.3 5.4 5.4 5.6 5.8 5.7 5.4 5.1 4.7 4.4 4.3 4.2 4.2 4.3 4.3 4.7 5.0 5.5 6.3 7.0 6.9 7.1 7.4 7.3 6.9 6.5 6.2 5.9 5.8 6.0 6.1 5.9 6.3 6.1 6.0 6.2
5.5 5.6 5.4 5.4 5.5 5.5 5.6 5.8 5.9 5.9 5.8 5.6 5.3 5.0 4.7 4.5 4.3 4.2 4.2 4.3 4.6 4.9 5.1 5.1 5.4 5.8 6.7 7.0 7.0 7.1 7.3 7.1 6.8 6.4 6.0 6.1 6.2 6.2 6.1 6.2 6.5 6.3 6.0
5.5 5.2 5.6 5.7 5.8 6.0 6.2 6.2 6.0 5.8 5.8 5.7 5.4 4.9 4.5 4.3 4.2 4.4 4.4 4.5 4.6 4.7 4.7 4.8 4.8 5.1 6.0 6.5 6.3 6.4 7.0 6.9 6.7 6.4 6.4 6.0 6.2 6.2 6.1 6.3 6.3 6.0 5.7
5.2 5.5 5.9 5.9 6.0 5.9 5.9 5.9 5.9 6.0 5.7 5.2 4.8 4.6 4.4 4.3 4.2 4.1 4.0 4.3 4.4 4.5 4.7 4.6 4.3 4.8 5.3 6.0 5.9 6.0 6.7 6.4 6.4 6.6 6.4 6.1 6.2 6.0 6.0 6.5 5.9 6.0 5.8
Wind_Speed
9 7 8 12 14 14 15 16 15 15 12 10 10 10 10 10 10 10 15 15 15 16 14 11 13 12 11 12 12 11 12 9 9 8 8 8 10 12 11 10 10 12 11
12 11 10 9 9 12 13 14 14 14 12 9 8 9 10 9 9 9 12 15 15 16 14 15 13 14 11 14 14 13 10 10 9 9 7 7 8 11 12 10 9 12 9
16 15 14 12 9 7 9 10 12 12 12 12 9 8 9 8 7 9 10 13 15 15 16 16 14 13 12 11 13 13 14 10 10 13 8 4 7 4 3 5 5 8 7
15 15 15 16 14 12 9 8 9 9 10 11 11 14 11 11 10 10 9 10 15 16 16 17 16 15 11 14 13 11 13 12 11 8 12 15 10 5 5 4 7 8 8
14 16 15 15 14 12 10 8 7 6 7 9 11 9 12 10 8 8 12 11 10 13 15 16 15 15 12 14 14 13 13 12 11 12 7 12 11 13 11 10 10 7 7
13 13 13 13 14 12 11 10 10 9 7 5 7 10 11 12 10 9 8 8 7 7 12 14 13 13 13 14 13 15 17 14 14 13 13 11 7 10 9 10 12 13 11
11 11 12 13 13 14 12 10 12 13 12 10 8 8 9 11 12 11 9 10 8 8 10 12 13 13 15 15 14 15 16 16 14 16 13 12 14 11 9 11 11 11 10
9 9 10 10 11 11 12 13 13 12 13 12 10 9 9 7 8 9 9 8 8 8 9 10 12 15 15 15 14 12 13 15 14 19 16 13 13 12 12 11 10 9 11
7 7 8 8 9 10 11 12 12 12 12 12 11 10 9 9 9 11 11 8 10 8 11 11 11 13 15 15 15 12 15 15 15 16 17 15 13 12 12 12 12 11 11
4 5 7 7 7 7 8 10 11 12 11 11 10 10 11 11 10 9 10 11 10 12 12 12 13 13 14 14 14 13 15 16 14 13 17 16 14 14 12 13 12 11 12
3 5 6 5 6 7 8 10 11 11 11 11 10 10 10 11 10 10 11 10 11 11 11 12 13 13 13 13 13 15 17 17 17 17 17 18 17 12 12 12 12 13 11
2 5 4 3 5 7 8 10 10 11 11 11 12 11 10 10 11 11 12 12 12 12 12 12 13 13 13 13 14 16 16 18 18 19 18 19 13 17 16 12 16 14 14
3 3 3 5 6 8 9 11 12 12 12 13 14 13 13 13 14 15 15 15 15 14 13 12 12 13 13 13 14 16 17 18 18 19 19 19 18 18 14 15 13 12 12
2 3 5 7 9 10 10 12 13 13 13 13 12 13 13 13 13 14 14 15 15 16 16 16 15 14 14 13 14 14 16 18 18 19 18 19 19 20 19 15 16 14 12
3 5 7 8 11 12 11 12 12 12 13 13 12 12 13 13 13 13 13 14 15 15 16 16 16 16 14 10 13 14 15 17 18 19 19 19 20 22 22 13 16 16 13
5 7 10 11 12 12 11 10 10 11 12 12 13 12 13 14 14 15 15 15 15 15 16 16 16 17 12 15 14 11 13 16 17 18 19 19 18 18 21 22 22 19 15
6 9 11 12 10 11 10 11 12 13 13 13 13 13 14 13 13 14 14 15 15 15 16 16 17 17 17 17 17 14 12 14 16 17 17 18 13 14 16 21 23 21 20
7 9 9 8 9 9 10 12 13 13 14 15 15 15 15 15 15 15 15 15 14 14 14 15 15 16 15 18 16 19 14 14 15 15 17 17 19 18 15 15 14 16 17
7 8 7 8 9 9 11 13 14 14 14 14 15 15 15 15 15 15 15 15 14 15 14 14 16 16 15 17 15 15 15 16 16 13 15 16 18 21 15 14 13 10 4
5 7 9 10 10 11 12 13 13 14 14 15 16 16 15 15 16 16 16 14 15 14 13 14 14 16 16 17 16 20 13 16 14 16 14 14 17 23 17 14 11 9 7
6 7 8 8 10 11 11 13 13 14 15 16 16 16 15 16 15 16 14 15 16 15 14 15 13 14 15 16 21 22 15 13 14 12 14 11 20 20 23 21 12 15 13
7 8 8 9 10 10 11 13 14 15 15 15 15 15 15 13 12 16 15 15 14 15 14 14 13 11 14 18 19 23 23 22 15 14 13 14 20 26 23 15 20 14 19
8 8 9 10 10 10 11 14 15 16 15 16 15 15 15 14 13 15 15 13 12 11 11 11 12 12 12 13 22 22 25 28 18 14 19 29 25 27 22 24 16 25 10
8 8 10 11 12 12 13 14 15 16 16 16 16 14 14 15 13 11 11 11 11 11 11 12 12 13 13 12 12 14 15 23 21 21 17 20 20 20 5 5 14 6 8
7 9 10 11 13 14 14 14 15 16 15 15 14 14 12 13 14 12 12 11 11 11 13 12 12 13 13 13 22 21 16 16 21 24 13 10 4 2 3 4 4 5 6
8 9 11 12 14 14 15 15 15 14 14 14 11 11 11 11 12 12 12 15 18 21 22 24 19 13 20 24 27 29 31 31 34 16 11 6 2 4 5 5 4 5 9
Wind_Direction
331 319 316 304 283 258 251 242 236 222 215 218 221 224 227 230 232 230 234 231 228 224 218 221 226 223 220 224 225 227 228 233 231 247 259 264 259 254 251 245 244 247 246
32 21 0 340 311 284 265 247 248 237 222 223 226 231 233 235 232 227 230 232 230 227 223 222 224 223 223 224 226 227 228 231 228 237 243 259 259 246 246 238 243 243 242
34 29 23 16 359 330 290 267 246 235 227 220 225 232 241 252 244 235 232 228 230 230 228 226 225 224 227 226 224 225 223 230 227 225 220 225 238 260 233 232 240 241 236
36 32 25 22 20 9 348 322 291 256 240 228 225 228 229 231 233 236 239 230 228 230 230 231 226 226 225 228 226 222 226 223 230 224 224 232 262 277 272 197 218 226 230
39 32 25 24 25 21 20 9 346 313 283 262 250 242 247 257 270 266 265 250 238 232 234 234 230 229 229 231 226 226 226 228 225 231 217 227 234 243 251 260 251 240 232
40 38 30 28 24 23 20 20 21 30 15 333 290 277 274 278 278 280 281 274 262 249 233 238 239 237 234 234 230 226 225 224 227 227 226 214 204 219 225 243 251 250 246
43 39 34 30 27 24 20 19 24 24 14 1 339 305 282 273 268 270 265 265 257 244 235 229 234 232 231 232 229 229 229 228 225 227 228 227 231 230 219 227 245 247 243
41 49 48 41 34 30 28 26 26 22 16 12 0 342 323 306 299 290 285 279 274 271 258 232 232 240 239 236 233 231 233 229 230 228 228 230 230 228 223 221 225 247 248
31 41 54 46 39 33 30 23 20 19 15 9 6 360 353 336 318 308 299 295 288 286 282 277 262 246 243 244 238 235 238 234 231 229 228 228 234 227 228 226 219 226 244
30 57 50 43 42 34 20 16 11 11 6 3 4 1 357 351 343 334 326 317 309 303 295 285 276 267 261 254 255 247 241 240 236 232 230 228 231 229 224 225 225 225 230
52 64 56 42 24 11 6 360 359 356 353 354 349 348 347 347 348 344 341 336 325 318 312 305 296 284 277 269 257 254 252 246 245 240 236 236 230 230 226 225 224 226 223
90 66 48 6 1 353 349 348 348 347 344 339 332 331 329 331 331 330 331 332 332 329 326 318 309 303 295 286 275 267 258 252 250 248 245 238 232 233 231 224 222 224 224
19 37 8 346 337 332 340 345 346 346 344 343 335 333 334 340 335 335 332 326 324 318 315 312 307 302 297 292 281 276 273 264 259 252 250 246 239 232 229 230 223 223 226
254 306 314 334 337 339 356 348 344 344 342 336 336 332 333 331 331 325 323 321 320 318 317 314 307 302 297 291 283 279 274 274 270 262 255 252 245 242 236 228 226 225 224
271 324 331 332 331 332 346 338 336 341 343 339 340 337 335 332 330 326 322 319 319 316 313 311 309 308 304 296 294 293 289 286 284 274 266 254 250 242 238 229 229 223 220
320 331 327 325 327 338 333 331 333 331 329 331 328 331 330 329 327 325 322 320 318 317 313 311 307 304 303 308 307 288 300 296 287 280 275 263 256 249 238 230 231 225 221
318 327 328 323 330 334 328 324 329 330 333 330 328 330 328 323 320 318 316 315 314 312 310 310 309 310 311 306 303 300 305 298 289 283 278 279 266 252 247 235 234 233 223
324 328 334 338 321 317 324 329 329 328 331 327 332 330 327 323 320 318 317 317 314 312 314 310 313 309 306 303 316 316 313 303 295 291 287 282 280 268 249 242 239 233 227
344 342 330 331 327 326 333 332 329 333 329 330 331 327 326 322 321 320 321 320 320 316 314 314 310 308 310 315 318 337 328 315 305 310 299 295 281 274 260 245 237 231 194
347 338 330 325 325 339 335 331 332 331 329 335 326 324 323 320 320 320 320 317 313 313 315 312 309 311 321 325 343 339 325 319 313 313 303 302 284 272 259 248 233 198 175
345 338 319 321 333 336 338 333 334 330 333 327 325 323 322 322 320 316 314 319 317 314 311 312 320 325 323 327 331 327 326 320 315 316 311 308 300 274 260 242 226 209 155
346 338 336 342 341 342 339 331 327 330 327 323 322 319 318 317 314 313 315 309 310 309 311 316 321 320 322 322 319 322 320 327 316 305 300 298 304 301 263 245 234 180 155
339 341 336 329 333 336 336 325 325 326 323 321 319 316 313 310 311 311 307 308 306 305 317 318 319 317 320 318 318 321 326 319 317 304 296 295 295 292 274 257 166 157 159
330 328 326 325 324 331 327 322 323 322 320 316 315 311 308 310 307 310 300 304 308 315 312 320 313 314 313 315 320 324 319 316 314 310 301 293 290 280 253 152 156 153 163
317 321 317 315 318 321 320 319 318 317 313 311 309 308 309 312 307 308 303 303 308 316 315 305 306 306 305 309 314 316 315 313 306 306 294 283 269 234 124 133 130 138 162
311 308 307 310 311 311 311 311 314 316 313 308 306 306 309 311 308 305 306 306 307 303 301 298 296 298 299 309 314 315 316 316 315 313 298 271 244 229 175 165 168 169 164